Starlink 4090

operational
NORAD ID: 53165 Int'l Des: 2022-083 Owner: SPXS Country: US Constellation: starlink
LEOCIRCULAR

Über Starlink 4090

Beschreibung wird geladen...

Live-Position

3D-Globus wird geladen...

Nächste Überflüge

Höhenverlauf

Altitude vs Time

uPlot chart will show altitude changes over time

Zweizeiliger Elementsatz

1 53165U 22083AK 25351.81390288 -.00000125 00000-0 10223-4 0 9991
2 53165 53.2156 171.6726 0001408 91.8692 268.2461 15.08832621189005
Epoch: 17. Dez. 2025 • Age: 11 hours

Aktueller Status

Höhe 540.2 km
Geschwindigkeit 7.59 km/s
Subsatellitenpunkt 4.04°N, 14.8°W
Startdatum 17. Juli 2022
Alter 3.4 years
Typ internet

Technische Details

Klassifizierung Payload
Masse 297.00 kg
Trockenmasse 275.00 kg
Gesamtmasse 297.00 kg
Länge 0.20 m
Durchmesser 2.80 m
Spannweite 9.00 m
Form Box + pan
Hersteller SPXS
Bus-Typ Starlink
Phasenstatus In Orbit
Besitzer/Staat SPXS/US

Große Konstellationen

Loading constellations...